Regional Weather Roundup
Issued by NWS Sioux Falls, SD

Home | Current Version | Previous Version | Text Only | Print | Product List | Glossary On
Versions: 1 2 3 4 5 6 7 8 9 10 11 12 13 14 15 16 17 18 19 20 21 22 23 24 25 26 27 28 29 30 31 32 33 34 35 36 37 38 39 40 41 42 43 44 45 46 47 48 49 50
000
ASUS43 KFSD 250110
RWRFSD

WEATHER ROUNDUP FOR SE SOUTH DAKOTA/SW MINNESOTA/NW IOWA
NATIONAL WEATHER SERVICE SIOUX FALLS SD
800 PM CDT SUN MAY 24 2015

NOTE: "FAIR" INDICATES FEW OR NO CLOUDS BELOW 12,000 FEET WITH NO
SIGNIFICANT WEATHER AND OR OBSTRUCTIONS TO VISIBILITY.


SDZ038>040-050-052>070-250200-
SOUTHEAST SOUTH DAKOTA

CITY           SKY/WX    TMP DP  RH WIND       PRES   REMARKS
BROOKINGS      CLOUDY    59  57  94 E10       29.82F
CHAMBERLAIN    CLOUDY    59  59  97 E6        29.81S
HURON          CLOUDY    61  58  90 E3        29.82S
MADISON        LGT RAIN  57  57 100 E9        29.81S
MITCHELL       CLOUDY    62  60  93 NE8       29.80F
SIOUX FALLS    CLOUDY    61  59  93 NE7       29.78F
WINNER         CLOUDY    61  58  90 NE7       29.81S FOG
YANKTON        CLOUDY    61  59  94 CALM      29.78S
$$

MNZ071-072-080-081-089-090-097-098-250200-
SOUTHWEST MINNESOTA

CITY           SKY/WX    TMP DP  RH WIND       PRES   REMARKS
FAIRMONT       CLOUDY    61  55  82 E7        29.78F
JACKSON        DRIZZLE   61  61 100 NE7       29.79S
LUVERNE        DRIZZLE   61  59  94 NE5       29.79F
MARSHALL       CLOUDY    59  54  82 E12       29.81S
MONTEVIDEO     LGT RAIN  59  59 100 SE12      29.84F
REDWOOD FALLS  LGT RAIN  60  58  92 E8        29.81F FOG
TRACY          DRIZZLE   60  59  98 E8        29.81F
WINDOM         DRIZZLE   59  57  94 NE8       29.79F
WORTHINGTON    CLOUDY    59  57  94 NE9       29.79F
$$

IAZ001>003-012>014-020>022-031-032-NEZ013-014-SDZ071-250200-
NORTHWEST IOWA

CITY           SKY/WX    TMP DP  RH WIND       PRES   REMARKS
CHEROKEE       CLOUDY    63  62  98 W3        29.77S
DENISON        CLOUDY    64  64 100 CALM      29.76F
ESTHERVILLE    CLOUDY    61  61 100 E3        29.77S FOG
LE MARS        CLOUDY    64  61  88 W5        29.78S
ORANGE CITY    CLOUDY    61  59  94 W3        29.77F
SHELDON        DRIZZLE   61 N/A N/A CALM      29.76F
SIOUX CITY     CLOUDY    63  60  90 N6        29.77F FOG
SPENCER        LGT RAIN  63  61  93 W3        29.77F
STORM LAKE     CLOUDY    63  61  94 SW7       29.79S
$$

ABBREVIATIONS USED IN REMARKS
   TC - TEMPERATURE IN CELSIUS
  WCI - WIND CHILL INDEX
   HX - HEAT INDEX
  VSB - VISIBILITY



USA.gov is the U.S. government's official web portal to all federal, state and local government web resources and services.